FW9229 Weather Reports


Display with metric or nautical units.
time (UTC)temp
F
wind
direction
speed
MPH
gust
MPH
rain 1hr
in
rain 24hr
in
rain mn
in
humidity
%
barometer
mb
20260506210047 63 337 2.0 9.0 0.00 0.02 0.02 73 1013.2
20260506205514 63 58 1.0 4.0 0.00 0.02 0.02 73 1013.1
20260506205017 63 110 2.0 4.0 0.00 0.02 0.02 73 1013.4
20260506204533 63 351 1.0 5.0 0.00 0.02 0.02 72 1013.5
20260506204013 63 323 1.0 9.0 0.00 0.02 0.02 72 1013.4
20260506203515 63 326 3.0 9.0 0.00 0.02 0.02 71 1013.5
20260506203031 64 358 0.0 3.0 0.00 0.02 0.02 73 1013.4
20260506202515 63 358 1.0 6.0 0.00 0.02 0.02 73 1013.6
20260506202015 63 354 2.0 6.0 0.00 0.02 0.02 73 1013.7
20260506201533 62 12 2.0 6.0 0.00 0.02 0.02 75 1013.8
20260506201013 61 1 0.0 5.0 0.00 0.02 0.02 77 1013.8
20260506200514 61 12 2.0 7.0 0.00 0.02 0.02 77 1013.9
20260506200034 60 0 1.0 8.0 0.00 0.02 0.02 77 1013.7
20260506195515 60 349 4.0 9.0 0.00 0.02 0.02 76 1013.6
20260506195016 60 10 2.0 9.0 0.00 0.02 0.02 77 1014.0
20260506194532 60 348 2.0 8.0 0.00 0.02 0.02 78 1014.1
20260506194016 60 0 0.0 3.0 0.00 0.02 0.02 78 1014.3
20260506193514 60 350 0.0 5.0 0.00 0.02 0.02 78 1014.3
20260506193041 60 0 1.0 5.0 0.00 0.02 0.02 78 1014.4
20260506192514 60 342 0.0 5.0 0.00 0.02 0.02 78 1014.5
20260506192012 60 0 0.0 5.0 0.00 0.02 0.02 78 1014.5
20260506191534 60 0 1.0 5.0 0.00 0.02 0.02 77 1014.5
20260506191014 60 0 2.0 5.0 0.00 0.02 0.02 77 1014.4
20260506190513 60 0 1.0 4.0 0.00 0.02 0.02 77 1014.5
20260506190033 60 0 0.0 3.0 0.00 0.02 0.02 77 1014.7
20260506185515 60 0 0.0 3.0 0.00 0.02 0.02 77 1014.6
20260506185015 60 74 0.0 2.0 0.00 0.02 0.02 77 1014.5
20260506184538 60 0 0.0 4.0 0.00 0.02 0.02 78 1014.4
20260506184015 60 0 1.0 4.0 0.00 0.02 0.02 78 1014.3
20260506183517 60 0 1.0 4.0 0.00 0.02 0.02 79 1013.9
20260506183030 60 44 1.0 5.0 0.00 0.02 0.02 79 1013.2
20260506182514 60 62 1.0 6.0 0.00 0.02 0.02 80 1013.0
20260506182016 59 61 2.0 7.0 0.00 0.02 0.02 80 1012.9
20260506181539 59 74 2.0 8.0 0.00 0.02 0.02 80 1012.9
20260506181016 59 25 3.0 9.0 0.00 0.02 0.02 81 1012.9
20260506180514 59 64 3.0 9.0 0.00 0.02 0.02 82 1012.7
20260506180034 58 69 2.0 5.0 0.00 0.02 0.02 83 1012.9
20260506175516 58 95 1.0 5.0 0.00 0.02 0.02 84 1013.4
20260506175013 57 0 0.0 6.0 0.00 0.02 0.02 84 1013.5
20260506174537 57 60 3.0 6.0 0.00 0.02 0.02 84 1013.6
20260506174017 57 0 0.0 5.0 0.00 0.02 0.02 84 1013.7
20260506173516 57 12 1.0 5.0 0.00 0.02 0.02 84 1013.8
20260506173032 57 0 0.0 5.0 0.00 0.02 0.02 84 1013.8
20260506172513 57 357 1.0 6.0 0.00 0.02 0.02 85 1013.9
20260506172014 57 29 0.0 6.0 0.00 0.02 0.02 85 1014.0
20260506171535 57 0 1.0 8.0 0.00 0.02 0.02 85 1013.9
20260506171013 57 58 2.0 8.0 0.00 0.02 0.02 84 1013.9
20260506170514 57 0 2.0 12.0 0.00 0.02 0.02 84 1013.9
20260506170037 57 0 2.0 12.0 0.00 0.02 0.02 84 1014.0
20260506165515 57 12 1.0 8.0 0.00 0.02 0.02 84 1013.6
20260506165013 58 347 2.0 6.0 0.00 0.02 0.02 85 1014.0
20260506164546 58 56 1.0 6.0 0.01 0.02 0.02 85 1014.2
20260506164014 58 46 1.0 4.0 0.01 0.02 0.02 85 1014.2
20260506163513 58 48 1.0 5.0 0.02 0.02 0.02 86 1014.2
20260506163035 58 38 2.0 5.0 0.02 0.02 0.02 86 1014.4
20260506162514 58 346 0.0 6.0 0.02 0.02 0.02 86 1014.8
20260506162014 57 0 2.0 6.0 0.02 0.02 0.02 87 1014.7
20260506161534 57 0 0.0 4.0 0.02 0.02 0.02 88 1014.6
20260506161019 57 0 0.0 8.0 0.02 0.02 0.02 88 1014.5
20260506160513 57 84 1.0 8.0 0.02 0.02 0.02 88 1014.0
20260506160034 57 0 0.0 6.0 0.02 0.02 0.02 88 1014.2
20260506155515 57 0 1.0 8.0 0.02 0.02 0.02 88 1013.2
20260506155013 57 6 0.0 8.0 0.02 0.02 0.02 87 1013.7
20260506154533 56 0 0.0 6.0 0.01 0.01 0.01 86 1013.5
20260506154014 56 52 2.0 6.0 0.01 0.01 0.01 85 1013.2
20260506153514 56 0 0.0 5.0 0.00 0.00 0.00 83 1014.8
20260506153032 56 0 1.0 5.0 0.00 0.00 0.00 82 1015.7
20260506152515 56 0 0.0 3.0 0.00 0.00 0.00 81 1016.2
20260506152015 56 0 0.0 5.0 0.00 0.00 0.00 81 1015.6
20260506151537 56 356 0.0 5.0 0.00 0.00 0.00 81 1015.3
20260506151014 56 0 0.0 6.0 0.00 0.00 0.00 81 1015.1
20260506150513 56 4 0.0 6.0 0.00 0.00 0.00 81 1015.1
20260506150039 56 0 0.0 4.0 0.00 0.00 0.00 82 1014.9
20260506145516 56 0 0.0 8.0 0.00 0.00 0.00 82 1014.1
20260506145018 56 25 2.0 8.0 0.00 0.00 0.00 82 1013.5
20260506144533 56 338 1.0 10.0 0.00 0.00 0.00 82 1014.4
20260506144016 56 3 1.0 10.0 0.00 0.00 0.00 82 1014.4
20260506143517 56 0 1.0 4.0 0.00 0.00 0.00 82 1014.4
20260506143037 56 0 0.0 9.0 0.00 0.00 0.00 81 1014.5
20260506142515 56 0 1.0 9.0 0.00 0.00 0.00 80 1014.5
20260506142015 56 316 0.0 8.0 0.00 0.00 0.00 81 1014.2
20260506141540 56 0 0.0 7.0 0.00 0.00 0.00 81 1013.8
20260506141017 56 0 1.0 7.0 0.00 0.00 0.00 80 1014.0
20260506140515 56 353 1.0 6.0 0.00 0.00 0.00 80 1013.9
20260506140034 56 335 0.0 6.0 0.00 0.00 0.00 80 1013.6
20260506135510 56 20 1.0 9.0 0.00 0.00 0.00 80 1013.4
20260506135012 56 0 0.0 9.0 0.00 0.00 0.00 80 1013.4
20260506134530 56 25 0.0 8.0 0.00 0.00 0.00 80 1013.5
20260506134014 56 0 0.0 8.0 0.00 0.00 0.00 79 1013.5
20260506133514 56 2 1.0 6.0 0.00 0.00 0.00 79 1013.4
20260506133030 56 358 2.0 9.0 0.00 0.00 0.00 79 1013.4
20260506132511 56 0 3.0 9.0 0.00 0.00 0.00 79 1013.1
20260506132015 56 12 1.0 8.0 0.00 0.00 0.00 79 1012.9
20260506131529 56 20 1.0 8.0 0.00 0.00 0.00 78 1012.7
20260506131014 56 336 0.0 6.0 0.00 0.00 0.00 78 1012.7
20260506130514 56 45 2.0 6.0 0.00 0.00 0.00 78 1012.8
20260506130030 56 58 3.0 6.0 0.00 0.00 0.00 78 1012.8
20260506125514 56 70 2.0 7.0 0.00 0.00 0.00 78 1012.8
20260506125011 56 41 3.0 7.0 0.00 0.00 0.00 78 1012.7
20260506124534 56 54 2.0 7.0 0.00 0.00 0.00 78 1012.7
20260506124010 56 32 0.0 11.0 0.00 0.00 0.00 78 1012.6
20260506123511 56 0 2.0 11.0 0.00 0.00 0.00 78 1012.2
20260506123030 56 40 3.0 10.0 0.00 0.00 0.00 77 1012.5
20260506122513 56 37 1.0 9.0 0.00 0.00 0.00 78 1012.5
20260506122013 56 39 1.0 9.0 0.00 0.00 0.00 78 1012.4
20260506121530 56 0 1.0 13.0 0.00 0.00 0.00 78 1012.3
20260506121012 56 0 2.0 13.0 0.00 0.00 0.00 77 1012.2
20260506120515 57 50 3.0 13.0 0.00 0.00 0.00 76 1012.5
20260506120049 57 4 4.0 13.0 0.00 0.00 0.00 75 1012.5
20260506115514 57 337 3.0 9.0 0.00 0.00 0.00 75 1012.4
20260506115012 57 0 1.0 9.0 0.00 0.00 0.00 75 1012.0
20260506114534 57 324 2.0 9.0 0.00 0.00 0.00 74 1011.9
20260506114013 58 356 1.0 6.0 0.00 0.00 0.00 74 1011.8
20260506113511 58 48 1.0 5.0 0.00 0.00 0.00 74 1011.7
20260506113030 58 3 1.0 6.0 0.00 0.00 0.00 74 1011.4
20260506112510 58 35 2.0 9.0 0.00 0.00 0.00 74 1011.5
20260506112013 58 332 2.0 9.0 0.00 0.00 0.00 73 1011.5
20260506111531 58 0 1.0 11.0 0.00 0.00 0.00 73 1011.6
20260506111014 58 318 2.0 11.0 0.00 0.00 0.00 73 1011.4
20260506110510 59 10 1.0 5.0 0.00 0.00 0.00 73 1011.3
20260506110032 59 0 0.0 5.0 0.00 0.00 0.00 73 1011.3
20260506105531 59 0 0.0 5.0 0.00 0.00 0.00 72 1011.2
20260506105013 59 324 2.0 8.0 0.00 0.00 0.00 72 1011.1
20260506104539 59 0 0.0 8.0 0.00 0.00 0.00 72 1011.1
20260506104019 59 30 1.0 8.0 0.00 0.00 0.00 72 1011.0
20260506103510 59 10 2.0 8.0 0.00 0.00 0.00 72 1010.8
20260506103040 59 304 2.0 6.0 0.00 0.00 0.00 73 1010.8
20260506102518 59 20 2.0 7.0 0.00 0.00 0.00 72 1010.6
20260506102014 59 353 3.0 7.0 0.00 0.00 0.00 72 1010.6
20260506101532 60 349 1.0 5.0 0.00 0.00 0.00 72 1010.5
20260506101012 60 25 1.0 5.0 0.00 0.00 0.00 72 1010.4
20260506100516 60 0 1.0 5.0 0.00 0.00 0.00 72 1010.3
20260506100031 60 0 0.0 4.0 0.00 0.00 0.00 72 1010.2
20260506095513 60 0 1.0 4.0 0.00 0.00 0.00 72 1010.4
20260506095014 60 25 1.0 4.0 0.00 0.00 0.00 73 1010.3
20260506094530 60 0 0.0 4.0 0.00 0.00 0.00 73 1010.2
20260506094013 60 0 0.0 4.0 0.00 0.00 0.00 73 1010.1
20260506093515 60 61 0.0 6.0 0.00 0.00 0.00 73 1010.2
20260506093031 60 62 1.0 7.0 0.00 0.00 0.00 73 1010.2
20260506092513 60 336 1.0 7.0 0.00 0.00 0.00 72 1010.2
20260506092017 60 351 2.0 7.0 0.00 0.00 0.00 72 1010.1
20260506091530 60 4 2.0 7.0 0.00 0.00 0.00 73 1010.0
20260506091013 60 0 0.0 5.0 0.00 0.00 0.00 73 1010.0
20260506090512 60 352 1.0 8.0 0.00 0.00 0.00 73 1010.0
20260506090031 60 328 1.0 8.0 0.00 0.00 0.00 72 1009.9
20260506085512 61 0 0.0 5.0 0.00 0.00 0.00 73 1009.9
20260506085012 61 2 2.0 5.0 0.00 0.00 0.00 73 1009.8
20260506084606 61 0 0.0 5.0 0.00 0.00 0.00 73 1009.6
20260506084017 61 41 0.0 5.0 0.00 0.00 0.00 73 1009.6
20260506083514 61 0 0.0 6.0 0.00 0.00 0.00 73 1009.7
20260506083029 61 345 2.0 8.0 0.00 0.00 0.00 73 1009.7
20260506082511 61 0 2.0 8.0 0.00 0.00 0.00 73 1009.6
20260506082011 61 12 1.0 6.0 0.00 0.00 0.00 73 1009.5
20260506081540 61 0 0.0 2.0 0.00 0.00 0.00 74 1009.4
20260506081014 61 0 0.0 4.0 0.00 0.00 0.00 74 1009.2
20260506080514 61 0 0.0 4.0 0.00 0.00 0.00 73 1009.3
20260506073514 62 358 0.0 6.0 0.00 0.00 0.00 73 1009.2
20260506073030 62 0 0.0 6.0 0.00 0.00 0.00 73 1009.5
20260506072513 62 44 1.0 4.0 0.00 0.00 0.00 73 1009.5
20260506072013 62 338 1.0 5.0 0.00 0.00 0.00 73 1009.6
20260506071534 62 25 1.0 5.0 0.00 0.00 0.00 73 1009.5
20260506071012 62 0 0.0 4.0 0.00 0.00 0.00 72 1009.4
20260506070512 62 20 1.0 6.0 0.00 0.00 0.00 73 1009.6
20260506062512 63 312 1.0 4.0 0.00 0.00 0.00 74 1009.2
20260506062016 63 0 0.0 6.0 0.00 0.00 0.00 74 1009.2
20260506061530 63 0 2.0 6.0 0.00 0.00 0.00 74 1009.2
20260506061014 63 56 2.0 6.0 0.00 0.00 0.00 74 1009.2
20260506060515 63 0 1.0 8.0 0.00 0.00 0.00 74 1009.3
20260506051014 65 9 3.0 10.0 0.00 0.00 0.00 73 1009.2
20260506050513 65 0 3.0 12.0 0.00 0.00 0.00 73 1009.3
20260506045014 66 340 1.0 5.0 0.00 0.00 0.00 74 1009.4
20260506044536 66 48 1.0 8.0 0.00 0.00 0.00 73 1009.2
20260506044012 66 31 2.0 10.0 0.00 0.00 0.00 73 1009.2
20260506043513 66 32 3.0 11.0 0.00 0.00 0.00 73 1009.2
20260506043030 67 30 3.0 11.0 0.00 0.00 0.00 73 1009.2
20260506042511 67 25 3.0 10.0 0.00 0.00 0.00 73 1009.1
20260506042015 68 352 2.0 10.0 0.00 0.00 0.00 73 1009.1
20260506041530 68 327 2.0 7.0 0.00 0.00 0.00 73 1008.9
20260506041013 68 12 2.0 7.0 0.00 0.00 0.00 73 1008.7
20260506040513 68 48 1.0 5.0 0.00 0.00 0.00 73 1008.6
20260506040036 69 1 1.0 6.0 0.00 0.00 0.00 73 1008.6
20260506035511 69 56 2.0 8.0 0.00 0.00 0.00 72 1008.5
20260506035013 69 10 2.0 8.0 0.00 0.00 0.00 73 1008.6
20260506034533 69 12 1.0 9.0 0.00 0.00 0.00 72 1008.5
20260506034013 70 7 3.0 12.0 0.00 0.00 0.00 72 1008.3
20260506033511 70 4 4.0 12.0 0.00 0.00 0.00 71 1008.4
20260506033030 71 25 2.0 8.0 0.00 0.00 0.00 72 1008.0
20260506032514 71 0 0.0 6.0 0.00 0.00 0.00 72 1008.2
20260506032015 71 351 1.0 8.0 0.00 0.00 0.00 72 1008.2
20260506031539 71 2 1.0 8.0 0.00 0.00 0.00 72 1008.0
20260506031012 71 12 1.0 11.0 0.00 0.00 0.00 72 1007.7
20260506030514 72 355 3.0 11.0 0.00 0.00 0.00 71 1007.7
20260506030031 72 64 2.0 9.0 0.00 0.00 0.00 71 1007.9
20260506025511 72 359 2.0 9.0 0.00 0.00 0.00 71 1007.7
20260506025017 73 20 2.0 8.0 0.00 0.00 0.00 71 1007.5
20260506024533 73 47 2.0 8.0 0.00 0.00 0.00 71 1007.4
20260506024011 73 0 2.0 8.0 0.00 0.00 0.00 71 1007.3
20260506023513 74 56 3.0 9.0 0.00 0.00 0.00 70 1006.9
20260506023050 74 341 2.0 9.0 0.00 0.00 0.00 70 1006.7
20260506022513 74 8 2.0 8.0 0.00 0.00 0.00 70 1006.7
20260506022021 74 354 2.0 8.0 0.00 0.00 0.00 69 1006.5
20260506021552 75 327 1.0 4.0 0.00 0.00 0.00 69 1006.4
20260506021018 75 0 0.0 3.0 0.00 0.00 0.00 68 1006.2
20260506020513 75 340 0.0 4.0 0.00 0.00 0.00 68 1006.1
20260506020032 75 0 0.0 5.0 0.00 0.00 0.00 67 1005.9
20260506015513 75 335 2.0 6.0 0.00 0.00 0.00 66 1006.2
20260506015015 76 360 2.0 6.0 0.00 0.00 0.00 66 1006.1
20260506014532 76 0 1.0 6.0 0.00 0.00 0.00 66 1006.1
20260506014013 76 341 2.0 8.0 0.00 0.00 0.00 66 1006.2
20260506013511 76 0 2.0 8.0 0.00 0.00 0.00 67 1006.0
20260506013035 76 351 1.0 6.0 0.00 0.00 0.00 66 1005.8
20260506012513 77 341 2.0 9.0 0.00 0.00 0.00 65 1005.7
20260506012012 77 329 2.0 11.0 0.00 0.00 0.00 65 1005.9
20260506011531 77 1 3.0 11.0 0.00 0.00 0.00 64 1006.2
20260506011013 78 343 2.0 8.0 0.00 0.00 0.00 64 1005.8
20260506010511 78 25 0.0 4.0 0.00 0.00 0.00 63 1005.6
20260506010032 78 25 1.0 10.0 0.00 0.00 0.00 63 1005.5
20260506005510 79 330 2.0 10.0 0.00 0.00 0.00 63 1005.6
20260506005014 79 350 3.0 8.0 0.00 0.00 0.00 62 1005.1
20260506004534 80 43 2.0 9.0 0.00 0.00 0.00 62 1005.4
20260506004016 80 345 3.0 9.0 0.00 0.00 0.00 61 1005.4
20260506003518 81 329 2.0 8.0 0.00 0.00 0.00 60 1005.3
20260506003032 81 25 1.0 5.0 0.00 0.00 0.00 60 1005.1
20260506002512 82 29 2.0 8.0 0.00 0.00 0.00 60 1005.1
20260506002020 82 29 3.0 8.0 0.00 0.00 0.00 59 1005.2
20260506001532 83 4 1.0 7.0 0.00 0.00 0.00 59 1005.3
20260506001013 83 343 2.0 9.0 0.00 0.00 0.00 58 1005.1
20260506000514 84 355 2.0 9.0 0.00 0.00 0.00 57 1005.2
20260506000032 84 0 1.0 6.0 0.00 0.00 0.00 57 1004.9
20260505235513 85 1 2.0 12.0 0.00 0.00 0.00 57 1004.5
20260505235012 85 10 3.0 12.0 0.00 0.00 0.00 56 1004.4
20260505234532 86 330 3.0 10.0 0.00 0.00 0.00 54 1004.5
20260505234016 87 335 2.0 8.0 0.00 0.00 0.00 51 1004.4
20260505233514 87 357 2.0 8.0 0.00 0.00 0.00 50 1004.4
20260505233035 87 333 3.0 6.0 0.00 0.00 0.00 50 1004.4
20260505232512 87 349 2.0 10.0 0.00 0.00 0.00 50 1004.3
20260505232015 87 358 3.0 10.0 0.00 0.00 0.00 50 1004.3
20260505231546 87 360 3.0 10.0 0.00 0.00 0.00 50 1004.0
20260505231018 88 308 2.0 9.0 0.00 0.00 0.00 50 1003.9
20260505230512 88 299 1.0 6.0 0.00 0.00 0.00 53 1003.7
20260505230030 88 0 0.0 6.0 0.00 0.00 0.00 57 1003.7
20260505225514 88 212 2.0 5.0 0.00 0.00 0.00 56 1003.5
20260505225011 88 0 1.0 6.0 0.00 0.00 0.00 57 1003.4
20260505224532 88 0 1.0 6.0 0.00 0.00 0.00 57 1003.5
20260505224012 88 207 1.0 6.0 0.00 0.00 0.00 56 1003.7
20260505223514 88 231 0.0 7.0 0.00 0.00 0.00 56 1003.5
20260505223031 88 212 3.0 8.0 0.00 0.00 0.00 56 1003.4
20260505222517 89 166 1.0 8.0 0.00 0.00 0.00 56 1003.4
20260505222018 89 179 3.0 8.0 0.00 0.00 0.00 56 1003.2
20260505221534 89 183 1.0 8.0 0.00 0.00 0.00 56 1003.4
20260505221014 89 0 0.0 3.0 0.00 0.00 0.00 56 1003.5
20260505220515 89 0 0.0 4.0 0.00 0.00 0.00 55 1003.5
20260505220033 90 204 1.0 4.0 0.00 0.00 0.00 55 1003.6
20260505215515 91 221 0.0 6.0 0.00 0.00 0.00 54 1003.5
20260505215013 91 0 0.0 6.0 0.00 0.00 0.00 52 1003.5
20260505214548 92 222 1.0 5.0 0.00 0.00 0.00 52 1003.5
20260505214018 91 0 0.0 5.0 0.00 0.00 0.00 53 1003.5
20260505213514 91 208 2.0 5.0 0.00 0.00 0.00 53 1003.6
20260505213038 91 0 1.0 5.0 0.00 0.00 0.00 53 1003.7
20260505212514 91 321 0.0 5.0 0.00 0.00 0.00 53 1003.7
20260505212015 91 0 1.0 8.0 0.00 0.00 0.00 54 1003.7
20260505211530 91 215 2.0 9.0 0.00 0.00 0.00 56 1003.9
20260505211013 90 212 2.0 12.0 0.00 0.00 0.00 56 1003.9
20260505210512 89 193 4.0 12.0 0.00 0.00 0.00 57 1004.0